Weather History for Ballenas Island, British Columbia

Change the Weather History Date:

Saturday, September 21, 2013

  Actual Average Record
Temperature  
Mean Temperature 56 °F -  
Max Temperature 60 °F - - ()
Min Temperature 52 °F - - ()
Degree Days  
Heating Degree Days 9    
Growing Degree Days 6 (Base 50)    
Moisture  
Dew Point 54 °F    
Average Humidity 90    
Maximum Humidity 96    
Minimum Humidity 75    
Precipitation  
Precipitation 0.03 in - - ()
Sea Level Pressure  
Sea Level Pressure 29.63 in    
Wind  
Wind Speed 7 mph ()    
Max Wind Speed 15 mph    
Max Gust Speed -    
T = Trace of Precipitation, MM = Missing Value Source: Averaged Metar Reports

Daily Weather History Graph

Daily Weather History Graph

Search for Another Location

Airport:

Trip Planner

Search our weather history database for the weather conditions in past years. The results will help you decide how hot, cold, wet, or windy it might be!

Date:

Astronomy

Sep. 21, 2013 Rise Set
Actual Time 7:02 AM PDT 7:15 PM PDT
Civil Twilight 6:30 AM PDT 7:47 PM PDT
Nautical Twilight 5:52 AM PDT 8:25 PM PDT
Astronomical Twilight 5:13 AM PDT 9:04 PM PDT
Moon 8:11 PM PDT (9/21) 9:43 AM PDT (9/21)
Length of Visible Light 13h 17m
Length of Day
12h 13m
Waning Gibbous, 94% of the Moon is Illuminated
Sep 21
Waning Gibbous
Sep 26
Last Quarter
Oct 4
New
Oct 11
First Quarter
Oct 18
Full

Hourly Weather History & Observations

Time (PDT) Temp. Dew Point Humidity Pressure Visibility Wind Dir Wind Speed Gust Speed Precip Events Conditions
12:00 AM 56.8 °F 55.4 °F 95% 29.59 in - East 10.4 mph - 0.02 in   Unknown
1:00 AM 57.2 °F 55.4 °F 94% 29.59 in - ESE 15.0 mph - N/A   Unknown
2:00 AM 56.7 °F 54.7 °F 93% 29.60 in - ESE 12.7 mph - 0.01 in   Unknown
3:00 AM 56.3 °F 54.5 °F 94% 29.59 in - SE 10.4 mph - N/A   Unknown
4:00 AM 55.8 °F 54.1 °F 94% 29.60 in - ESE 11.5 mph - N/A   Unknown
5:00 AM 55 °F 53 °F 92% 29.61 in - SW 3.5 mph - -  
5:00 AM 55.0 °F 53.4 °F 94% 29.61 in - SW 3.5 mph - N/A   Unknown
6:00 AM 53.6 °F 52.3 °F 95% 29.62 in - WSW 3.5 mph - N/A   Unknown
7:00 AM 53.1 °F 51.8 °F 95% 29.63 in - SW 3.5 mph - N/A   Unknown
8:00 AM 52.3 °F 51.3 °F 96% 29.64 in - SW 2.3 mph - 0.01 in   Unknown
9:00 AM 53.4 °F 52.3 °F 96% 29.65 in - SW 2.3 mph - N/A   Unknown
10:00 AM 57.6 °F 56.3 °F 96% 29.66 in - Calm Calm - N/A   Unknown
11:00 AM 57 °F 55 °F 89% 29.66 in - NE 1.2 mph - -  
11:00 AM 56.8 °F 54.7 °F 92% 29.66 in - NE 1.2 mph - N/A   Unknown
12:00 PM 57.7 °F 53.4 °F 85% 29.67 in - East 3.5 mph - N/A   Unknown
1:00 PM 57.9 °F 54.3 °F 88% 29.68 in - East 4.6 mph - N/A   Unknown
2:00 PM 58.6 °F 55.9 °F 91% 29.67 in - East 10.4 mph - N/A   Unknown
3:00 PM 59.9 °F 55.9 °F 87% 29.67 in - ESE 10.4 mph - N/A   Unknown
4:00 PM 59.2 °F 55.8 °F 88% 29.65 in - ESE 11.5 mph - N/A   Unknown
5:00 PM 59 °F 55 °F 84% 29.65 in - East 12.7 mph - -  
5:00 PM 59.2 °F 55.4 °F 87% 29.65 in - East 12.7 mph - N/A   Unknown
6:00 PM 59.0 °F 55.4 °F 88% 29.64 in - East 10.4 mph - N/A   Unknown
7:00 PM 59.0 °F 55.4 °F 88% 29.63 in - ESE 11.5 mph - N/A   Unknown
8:00 PM 58.5 °F 54.5 °F 87% 29.63 in - SE 8.1 mph - N/A   Unknown
9:00 PM 57.9 °F 53.8 °F 86% 29.63 in - SSE 3.5 mph - N/A   Unknown
10:00 PM 58.1 °F 54.0 °F 86% 29.63 in - SE 5.8 mph - N/A   Unknown
11:00 PM 58 °F 52 °F 75% 29.62 in - ESE 1.2 mph - -  
11:00 PM 57.6 °F 52.2 °F 82% 29.62 in - ESE 1.2 mph - N/A   Unknown